Location: Bayshore Village Mobile Home Park
(26.6945°N, 81.8642°W)
Time: 12:55:27
(UTC+00:00)

Hubble Space Telescope - Visible Passes

Search period start: 23 October 2021 00:00
Search period end: 02 November 2021 00:00
Orbit: 535 x 538 km, 28.5° (Epoch: 22 October)

Date Brightness Start Highest point End Pass type
(mag) Time Alt. Az. Time Alt. Az. Time Alt. Az.
24 Oct 3.2 00:22:17 10° S 00:22:54 11° SSE 00:22:54 11° SSE visible
25 Oct 2.7 00:10:15 10° SSW 00:12:42 16° SSE 00:12:42 16° SSE visible
25 Oct 2.3 23:58:34 10° SSW 00:01:40 21° SSE 00:02:28 19° SE visible
26 Oct 2.1 23:47:05 10° SSW 23:50:31 26° SSE 23:52:11 20° ESE visible
27 Oct 4.0 01:27:21 10° WSW 01:27:30 11° WSW 01:27:30 11° WSW visible
27 Oct 1.8 23:35:41 10° SW 23:39:23 33° SSE 23:41:51 17° ESE visible
28 Oct 3.6 01:16:17 10° WSW 01:17:10 16° WSW 01:17:10 16° WSW visible
28 Oct 1.5 23:24:24 10° SW 23:28:16 41° SSE 23:31:29 14° E visible
29 Oct 3.1 01:05:13 10° W 01:06:47 22° W 01:06:47 22° W visible
29 Oct 1.2 23:13:09 10° WSW 23:17:09 51° SSE 23:21:04 10° E visible
30 Oct 2.6 00:54:10 10° W 00:56:22 30° W 00:56:22 30° W visible
30 Oct 1.0 23:01:59 10° WSW 23:06:03 62° SSE 23:10:06 10° E visible
31 Oct 1.9 00:43:07 10° W 00:45:55 41° WNW 00:45:55 41° WNW visible
01 Nov 1.3 00:32:04 10° W 00:35:27 54° NW 00:35:27 54° NW visible
